Wind_Speed
2 4 7 8 7 2 3 2 1 1 6 6 7 4 9 13 16 13 14 21 19 19 17 16 17 17 15 14 12 15 16 15 11 14 13 12 10 8 8 9 8 11 11 8
4 6 7 2 7 8 6 4 0 4 6 3 4 6 8 9 17 17 18 18 20 18 18 22 21 21 19 17 14 13 17 16 13 13 11 10 8 9 9 10 12 11 12 10
8 1 3 8 5 8 8 4 4 2 5 2 2 2 5 7 11 14 20 20 15 18 19 21 22 23 22 21 19 13 18 17 16 14 11 11 10 8 9 16 11 9 10 10
5 3 6 8 11 9 10 6 9 9 4 1 1 2 4 10 12 11 20 22 24 20 22 23 23 26 26 23 21 17 17 18 16 16 14 12 11 8 11 12 10 10 11 7
2 6 9 9 6 10 2 9 9 7 2 2 2 4 5 4 11 17 21 27 25 24 23 26 27 28 26 25 24 20 17 18 16 16 16 14 12 10 8 12 11 11 12 10
6 2 5 3 4 10 13 11 7 3 2 3 3 3 2 4 4 7 19 26 26 25 26 25 26 27 26 25 25 24 21 20 18 17 18 17 12 11 10 12 11 12 12 12
2 2 1 11 10 5 4 6 2 3 3 3 2 3 4 3 3 5 8 21 28 27 27 27 28 29 29 29 25 24 25 23 20 19 17 18 15 14 11 11 10 9 12 13
3 5 4 4 2 5 6 3 3 5 4 1 1 3 1 3 3 3 7 14 20 30 31 30 32 33 34 30 29 26 25 25 24 22 19 18 18 18 17 14 13 13 9 8
4 1 2 3 3 3 5 6 2 5 1 3 1 3 6 4 7 9 4 1 9 20 29 29 28 31 34 32 30 28 28 25 22 23 23 21 18 19 19 16 14 12 13 11
2 4 2 4 4 11 3 8 4 2 3 4 2 4 4 4 4 7 10 4 3 8 16 24 26 30 30 32 30 28 28 26 23 23 24 23 21 20 21 20 18 17 14 15
6 2 4 5 1 5 4 4 4 4 2 3 3 2 5 6 2 3 5 6 5 4 8 14 19 21 32 31 30 29 28 28 27 26 25 25 24 22 23 23 22 21 18 15
1 2 2 3 1 1 1 2 5 5 5 1 3 3 3 5 6 3 2 3 4 7 11 13 14 17 22 29 29 30 29 29 28 26 27 24 26 26 25 23 24 23 21 20
8 1 5 4 4 3 1 3 2 4 3 6 5 2 3 6 8 7 5 2 4 6 4 3 8 14 19 24 26 29 31 30 28 26 27 28 26 28 27 25 24 26 25 22
7 3 3 5 1 1 4 3 4 3 5 6 7 3 6 9 9 7 5 3 2 5 4 1 3 11 14 18 22 24 28 32 30 29 26 24 23 29 25 26 24 26 28 26
1 4 2 3 3 3 2 3 6 6 2 7 4 8 10 1 6 9 3 4 1 2 4 2 3 9 15 18 20 23 29 31 34 31 28 27 28 24 27 27 26 24 27 28
2 4 3 4 2 1 3 4 4 5 3 10 5 9 4 3 10 10 7 8 7 3 2 2 3 3 7 11 13 16 21 27 29 32 34 34 27 25 26 29 27 26 25 28
5 7 6 5 2 1 6 10 9 6 4 4 7 3 5 6 8 6 5 6 6 4 2 1 3 4 8 10 10 11 12 15 23 34 38 39 43 36 28 29 29 29 29 26
8 8 3 3 5 7 2 2 5 6 4 8 8 6 1 3 3 2 3 7 8 5 3 4 6 8 10 13 14 15 15 14 17 24 31 37 43 44 42 33 31 29 29 30
3 6 4 5 9 2 2 5 6 7 5 7 5 4 3 1 2 3 5 5 3 4 3 5 8 12 14 14 15 15 16 17 16 18 21 28 32 36 35 35 28 26 27 27
6 5 4 4 4 7 5 9 6 2 8 11 9 7 5 1 3 2 3 5 5 4 4 7 9 12 15 16 16 16 15 17 15 15 16 21 23 26 29 31 29 27 25 25
5 3 10 6 5 3 6 8 12 9 4 9 16 11 9 3 1 2 3 5 7 9 10 9 12 14 16 15 15 15 15 18 13 9 8 14 19 23 25 27 29 29 27 24
9 8 5 3 5 8 14 10 9 7 7 8 14 12 10 7 5 8 11 13 11 11 13 12 13 14 14 12 14 14 14 14 14 10 7 14 19 19 18 19 21 24 23 22
6 5 7 10 6 2 28 16 19 11 8 10 14 13 12 7 7 10 12 12 12 11 12 13 14 15 12 11 13 14 13 12 16 12 12 18 16 13 14 18 25 28 28 24
3 3 4 5 7 8 20 17 14 16 11 11 14 11 6 2 4 7 11 10 10 11 11 13 15 16 13 11 11 13 13 13 16 13 12 13 12 10 11 13 13 16 25 23
2 7 5 3 1 4 8 22 16 17 14 11 12 9 6 4 6 9 12 13 13 12 12 13 15 15 11 10 8 12 13 11 17 14 13 11 11 8 7 10 13 19 24 25
7 6 6 6 13 12 12 26 21 16 16 13 15 11 8 6 8 11 14 15 14 13 13 14 13 12 11 9 10 10 10 9 16 14 12 8 6 5 4 6 8 4 13 24
Wind_Direction
54 197 203 213 216 88 66 87 78 160 157 187 214 221 198 197 209 203 204 210 215 223 223 226 227 228 225 229 218 211 206 201 194 189 181 179 177 169 172 173 167 166 167 171
182 231 230 190 225 237 283 317 12 106 152 214 177 236 207 201 209 207 194 208 217 234 235 233 230 229 224 228 222 209 200 203 197 190 190 182 178 183 187 179 168 171 176 178
221 236 182 196 218 226 239 246 175 110 154 210 233 233 208 206 225 218 210 209 221 229 233 236 231 227 228 222 222 217 200 202 198 192 193 193 192 187 182 173 174 181 183 180
249 194 189 198 229 217 269 163 147 135 178 65 271 343 228 217 230 220 224 222 221 226 228 229 228 223 221 219 221 221 211 209 210 209 206 205 197 199 196 186 192 195 195 186
121 180 180 202 216 188 292 164 136 130 155 233 72 283 140 204 237 227 220 224 225 227 222 218 221 219 220 218 221 221 220 214 219 215 213 209 208 211 202 189 193 192 193 198
260 257 200 150 79 169 136 110 88 86 348 278 29 308 177 186 218 241 222 227 225 221 225 224 222 220 221 218 220 225 225 221 223 221 215 213 219 220 219 202 197 205 200 204
236 186 119 131 100 136 160 170 134 210 224 308 17 248 294 250 229 259 239 229 228 220 220 220 222 216 217 217 216 222 227 226 223 223 218 219 221 224 227 219 211 212 222 219
198 163 187 157 181 187 187 248 219 248 240 287 181 243 74 307 288 317 272 247 229 221 219 217 220 219 218 220 222 223 225 224 225 227 227 227 228 232 232 232 230 229 223 228
179 121 147 12 115 176 149 207 63 115 106 247 333 274 253 235 259 292 333 238 217 218 223 221 222 222 218 224 222 217 219 222 224 226 230 231 234 229 227 230 232 231 231 226
186 138 84 122 113 52 223 131 178 213 200 261 215 283 276 272 267 257 276 340 318 250 233 228 225 224 223 225 222 220 220 222 227 227 227 231 233 233 231 238 242 241 242 233
167 254 117 179 41 162 148 173 70 104 317 234 264 263 219 236 195 287 281 295 301 300 256 238 229 227 227 226 224 223 223 228 230 234 233 234 235 235 238 241 244 239 240 242
135 109 112 80 18 265 174 156 183 234 189 259 304 269 181 212 191 210 195 252 300 303 282 253 234 222 221 230 230 226 224 233 234 237 240 245 243 243 242 245 240 242 245 243
173 142 137 150 174 166 208 125 129 116 145 188 224 240 170 201 203 222 223 242 328 350 332 213 220 225 225 227 233 234 234 237 240 240 242 244 248 244 246 247 243 238 241 243
128 123 200 225 164 88 166 159 166 235 205 174 223 241 208 210 209 203 207 178 353 3 4 235 226 238 220 227 241 246 248 242 243 245 244 239 253 247 246 250 249 244 239 240
190 144 156 112 123 158 158 177 195 230 203 230 239 225 262 225 199 180 196 193 152 49 44 33 244 250 234 244 248 248 245 250 253 246 241 241 251 250 245 245 245 245 241 240
31 125 135 159 171 193 207 246 242 234 222 245 260 270 296 95 131 133 150 174 189 226 239 184 194 232 236 245 248 245 248 245 255 242 242 251 252 240 241 241 241 241 245 241
140 143 168 193 186 216 249 227 222 229 218 243 220 251 337 119 131 148 178 194 202 179 123 243 252 256 265 263 258 258 248 246 248 249 245 247 249 252 253 245 239 240 241 243
141 129 162 150 159 216 51 292 233 230 236 225 268 280 237 59 79 128 181 176 178 198 271 264 274 282 286 286 282 262 257 261 264 253 249 240 242 247 251 247 239 239 243 242
155 140 126 174 206 348 241 199 183 201 216 201 208 178 194 85 32 119 61 97 168 211 232 269 281 288 287 291 287 275 253 253 268 261 248 239 239 242 244 240 246 237 240 243
89 92 192 158 200 218 222 188 169 119 238 190 195 196 188 144 275 31 35 21 355 337 315 299 294 297 294 294 288 278 270 253 254 264 251 237 235 240 241 239 234 233 234 238
152 140 207 179 217 250 244 153 154 198 213 184 196 195 176 202 302 257 259 285 295 299 306 305 309 311 306 291 282 280 274 261 257 264 257 239 236 238 235 234 227 226 224 231
164 165 184 150 210 247 157 138 199 203 189 205 202 194 200 219 263 291 289 283 280 278 293 300 304 306 316 296 286 279 275 264 253 252 254 247 224 219 213 209 207 212 216 226
188 198 173 200 204 126 177 186 204 194 194 203 198 201 216 247 290 301 301 288 267 264 282 293 297 301 308 287 272 271 272 265 243 238 241 219 223 220 225 232 235 233 231 225
186 184 148 162 188 202 200 206 208 211 203 209 202 205 205 245 299 302 297 291 275 271 273 285 292 297 296 284 264 262 276 269 234 215 217 226 231 235 235 245 243 245 237 219
122 155 158 232 161 162 220 212 211 207 207 200 198 178 171 188 269 290 299 300 288 275 274 284 294 295 293 291 267 274 273 252 208 207 211 221 239 231 246 243 241 231 228 233
190 163 192 216 192 179 202 209 208 206 199 195 181 180 197 230 267 288 294 296 286 274 279 288 291 287 282 291 277 286 270 232 199 210 218 200 184 200 184 157 146 172 215 200
Height
1517 1517 1518 1512 1516 1519 1520 1525 1527 1526 1528 1531 1531 1532 1532 1534 1537 1538 1540 1542 1544 1545 1548 1549 1552 1554 1557 1559 1561 1564 1567 1570 1572 1574 1577 1578 1579 1581 1583 1584 1585 1586 1589 1591
1517 1518 1513 1516 1516 1518 1518 1523 1526 1527 1528 1529 1531 1530 1529 1534 1533 1535 1537 1540 1542 1544 1546 1547 1550 1553 1555 1558 1561 1563 1566 1569 1572 1574 1577 1578 1579 1581 1583 1584 1586 1587 1589 1591
1514 1512 1513 1513 1514 1517 1515 1520 1525 1524 1527 1528 1529 1530 1531 1532 1533 1535 1535 1536 1539 1541 1543 1545 1547 1550 1553 1556 1559 1562 1565 1569 1572 1574 1576 1577 1579 1581 1582 1584 1586 1588 1589 1591
1513 1510 1512 1512 1511 1512 1515 1515 1518 1522 1526 1529 1527 1532 1530 1528 1529 1532 1533 1533 1534 1536 1539 1542 1544 1547 1550 1554 1558 1561 1564 1567 1571 1574 1575 1577 1578 1581 1583 1585 1586 1587 1590 1591
1507 1507 1510 1511 1509 1512 1515 1515 1517 1520 1523 1527 1529 1531 1524 1528 1527 1524 1528 1527 1530 1533 1534 1537 1540 1543 1547 1552 1555 1559 1562 1566 1569 1572 1574 1576 1578 1580 1583 1584 1586 1587 1589 1591
1505 1505 1505 1503 1509 1509 1515 1517 1519 1522 1526 1528 1534 1530 1517 1520 1518 1515 1521 1523 1526 1529 1531 1534 1538 1541 1545 1549 1552 1556 1560 1564 1567 1570 1572 1575 1577 1580 1582 1583 1585 1587 1588 1590
1504 1501 1501 1503 1509 1514 1512 1513 1530 1536 1535 1533 1532 1530 1513 1511 1514 1515 1516 1518 1520 1524 1527 1530 1533 1537 1540 1544 1548 1552 1556 1561 1564 1567 1569 1573 1575 1578 1580 1582 1584 1585 1587 1589
1506 1515 1501 1500 1501 1505 1511 1512 1520 1544 1540 1532 1534 1528 1511 1512 1513 1514 1514 1513 1515 1517 1520 1524 1527 1532 1537 1540 1544 1548 1552 1557 1561 1564 1567 1570 1573 1576 1578 1580 1583 1584 1586 1587
1506 1506 1500 1500 1501 1502 1515 1518 1514 1526 1538 1533 1527 1519 1508 1510 1511 1510 1510 1510 1509 1513 1518 1522 1526 1528 1532 1536 1539 1544 1549 1553 1557 1561 1564 1567 1570 1573 1576 1579 1581 1582 1584 1585
1498 1508 1501 1503 1502 1506 1504 1511 1518 1518 1538 1540 1527 1527 1515 1508 1507 1507 1506 1509 1511 1513 1515 1519 1522 1525 1529 1532 1537 1541 1545 1549 1554 1557 1560 1564 1567 1570 1573 1576 1577 1580 1582 1583
1497 1497 1505 1502 1504 1504 1511 1510 1520 1517 1525 1527 1533 1521 1504 1505 1507 1507 1508 1510 1511 1512 1513 1515 1519 1522 1526 1530 1534 1537 1541 1545 1550 1554 1557 1560 1563 1566 1569 1571 1574 1576 1578 1580
1496 1495 1505 1507 1505 1507 1505 1506 1504 1510 1531 1531 1523 1515 1503 1506 1508 1509 1510 1510 1512 1511 1511 1512 1515 1518 1521 1526 1530 1534 1537 1540 1544 1549 1552 1555 1559 1562 1564 1566 1569 1572 1575 1577
1491 1502 1511 1512 1505 1505 1505 1509 1510 1510 1511 1523 1519 1511 1504 1506 1507 1508 1510 1511 1511 1510 1510 1509 1512 1515 1518 1523 1526 1530 1533 1536 1540 1543 1546 1549 1552 1555 1558 1561 1564 1567 1570 1572
1487 1499 1498 1506 1504 1503 1508 1509 1510 1504 1508 1511 1507 1502 1500 1503 1505 1509 1510 1511 1511 1510 1509 1508 1510 1513 1516 1519 1523 1526 1529 1532 1536 1538 1541 1543 1545 1548 1552 1555 1558 1561 1564 1566
1487 1496 1503 1505 1505 1505 1504 1505 1508 1507 1506 1507 1499 1506 1493 1499 1502 1507 1509 1511 1512 1512 1511 1511 1511 1513 1514 1516 1518 1521 1524 1527 1529 1533 1535 1535 1538 1541 1545 1549 1552 1555 1557 1560
1491 1505 1503 1508 1507 1507 1507 1504 1503 1505 1507 1506 1506 1503 1498 1503 1505 1506 1508 1509 1510 1511 1511 1511 1512 1513 1514 1515 1516 1517 1519 1520 1521 1524 1527 1529 1532 1534 1538 1542 1545 1549 1552 1554
1490 1499 1504 1510 1510 1509 1512 1501 1501 1500 1502 1500 1504 1495 1499 1502 1504 1505 1506 1507 1508 1509 1510 1511 1512 1512 1512 1512 1512 1513 1513 1514 1515 1516 1519 1522 1523 1527 1531 1535 1538 1541 1545 1548
1490 1497 1503 1507 1512 1525 1499 1501 1500 1500 1499 1499 1498 1498 1500 1500 1502 1503 1504 1505 1506 1508 1508 1509 1509 1510 1509 1508 1507 1507 1508 1508 1509 1508 1509 1511 1513 1518 1522 1527 1530 1533 1537 1540
1483 1490 1508 1508 1507 1510 1501 1498 1498 1498 1496 1496 1497 1498 1499 1500 1500 1502 1503 1504 1505 1507 1507 1507 1507 1506 1505 1505 1504 1502 1502 1503 1503 1503 1502 1503 1505 1509 1514 1518 1522 1526 1530 1533
1486 1486 1486 1510 1508 1512 1490 1489 1493 1494 1501 1492 1495 1495 1497 1499 1498 1500 1501 1502 1502 1503 1504 1504 1503 1502 1501 1500 1498 1497 1496 1497 1497 1498 1496 1497 1499 1503 1506 1509 1514 1519 1522 1525
1487 1491 1489 1497 1498 1493 1485 1488 1492 1505 1496 1488 1491 1494 1496 1497 1499 1500 1500 1500 1501 1500 1499 1499 1499 1498 1496 1494 1494 1492 1492 1493 1492 1492 1491 1492 1494 1498 1501 1503 1506 1511 1514 1518
1476 1485 1489 1499 1498 1501 1483 1490 1491 1483 1483 1485 1488 1491 1494 1496 1497 1498 1498 1498 1497 1497 1496 1496 1495 1494 1492 1490 1489 1488 1488 1489 1488 1487 1488 1490 1492 1494 1498 1501 1503 1505 1508 1512
1471 1464 1472 1476 1476 1473 1475 1474 1477 1479 1481 1483 1486 1489 1491 1494 1496 1496 1495 1493 1493 1493 1493 1492 1490 1489 1488 1487 1486 1486 1485 1485 1486 1485 1487 1488 1490 1492 1494 1497 1499 1501 1502 1502
1466 1468 1464 1474 1468 1470 1471 1473 1475 1477 1479 1482 1484 1487 1490 1492 1493 1493 1492 1490 1490 1490 1489 1488 1487 1485 1484 1483 1482 1481 1481 1480 1482 1484 1485 1487 1490 1492 1491 1493 1495 1496 1498 1499
1461 1466 1467 1465 1467 1469 1469 1470 1472 1475 1477 1480 1483 1486 1488 1489 1489 1489 1488 1487 1486 1485 1485 1484 1483 1481 1480 1478 1477 1477 1477 1477 1479 1481 1483 1486 1489 1489 1490 1490 1491 1491 1492 1495
1458 1457 1460 1456 1456 1457 1461 1464 1469 1471 1474 1478 1481 1484 1486 1487 1487 1486 1485 1483 1482 1481 1480 1480 1479 1478 1477 1475 1475 1474 1474 1475 1477 1480 1483 1485 1487 1488 1489 1490 1489 1489 1490 1490